Regional Weather Roundup
Issued by NWS Sterling, VA

Home | Current Version | Previous Version | Text Only | Print | Product List | Glossary On
Versions: 1 2 3 4 5 6 7 8 9 10 11 12 13 14 15 16 17 18 19 20 21 22 23 24 25 26 27 28 29 30 31 32 33 34 35 36 37 38 39 40 41 42 43 44 45 46 47 48 49 50
000
ASUS41 KLWX 030910
RWRLWX

REGIONAL WEATHER ROUNDUP
NATIONAL WEATHER SERVICE BALTIMORE MD/WASHINGTON DC
500 AM EDT MON AUG 03 2015

Note: "FAIR" indicates few or no clouds below 12,000 feet
with no significant weather and/or obstructions to visibility.
 TC=TEMPERATURE CELSIUS

 * =Non NWS site. Station does not report precipitation (e.g. rain,
    snow, etc.), thunder, or fog.

DCZ001-MDZ009-015-VAZ040>042-051-053>054-031000-
WASHINGTON METRO

CITY           SKY/WX    TMP DP  RH WIND       PRES   REMARKS
WASHINGTON NAT PTCLDY    74  63  68 S5        29.87F
DULLES         PTCLDY    66  62  87 S7        29.87S
ANDREWS AFB    PTCLDY    67  63  85 S7        29.86F
FT BELVOIR     CLEAR     63  61  94 CALM      29.86F
COLLEGE PARK*  PTCLDY    66  66 100 CALM      29.86F
LEESBURG*      CLEAR     66  64  94 S6        29.87F
MANASSAS*      PTCLDY    64  63  94 CALM      29.88S
GAITHERSBURG*  CLEAR     66  59  77 S5        29.91S

$$

MDZ006>007-011-014-031000-
BALTIMORE METRO

CITY           SKY/WX    TMP DP  RH WIND       PRES   REMARKS
BWI AIRPORT    PTCLDY    66  63  90 W3        29.85F
MD SCIENCE CTR   N/A     72  62  71 MISG      29.86F
MARTIN STATE   CLEAR     73  66  78 CALM      29.86F
ANNAPOLIS      CLEAR     70  63  78 S7        29.86S
FORT MEADE*    CLEAR     59  59 100 CALM      29.88F

$$

MDZ012-015-019>023-031000-
MARYLAND EASTERN SHORE

CITY           SKY/WX    TMP DP  RH WIND       PRES   REMARKS
OCEAN CITY     CLEAR     64  63  96 CALM      29.88S FOG
SALISBURY      CLEAR     68  68 100 CALM      29.88S
BAY BRIDGE AP*   N/A     73  63  68 SW5       29.86F
CAMBRIDGE*     CLEAR     64  61  88 CALM      29.87S
EASTON*        CLEAR     68  68 100 CALM      29.91S

$$

MDZ017>025-031000-
SOUTHERN MARYLAND

CITY           SKY/WX    TMP DP  RH WIND       PRES   REMARKS
PATUXENT RIVER CLEAR     71  65  81 SW9       29.88S
ST INIGOES     CLEAR     68  65  90 CALM      29.88R
LEONARDTOWN*   CLEAR     68  63  83 CALM      29.90S

$$

MDZ003>005-031000-
NORTH CENTRAL MARYLAND

CITY           SKY/WX    TMP DP  RH WIND       PRES   REMARKS
FREDERICK*     CLEAR     64  63  94 CALM      29.88F
HAGERSTOWN APT CLEAR     68  59  73 S6        29.85F
WESTMINSTER*   CLEAR     70  61  73 SW3       29.87F

$$

MDZ501>502-031000-
WESTERN MARYLAND

CITY           SKY/WX    TMP DP  RH WIND       PRES   REMARKS
OAKLAND*       CLEAR     61 N/A N/A SW9G16    29.95S
CUMBERLAND*    CLEAR     61  61 100 CALM      29.90F

$$

VAZ025>031-031000-
SHENANDOAH VALLEY

CITY           SKY/WX    TMP DP  RH WIND       PRES   REMARKS
WINCHESTER*    CLEAR     70  59  68 SW6       29.86F
FRONT ROYAL*   FAIR      64  59  82 S6        29.87S
LURAY*         FAIR      63  63 100 CALM      29.89S
NEW MARKET*    FAIR      60  58  91 CALM      29.89S
STAUNTON*      CLEAR     60  57  91 CALM      29.93F
WAYNESBORO*    FAIR      57  55  94 SW7       29.94S

$$

WVZ021-048>050-054>055-031000-
EASTERN WEST VIRGINIA PANHANDLE

CITY           SKY/WX    TMP DP  RH WIND       PRES   REMARKS
MARTINSBURG    CLEAR     63  58  83 S3        29.86F
PETERSBURG*    CLEAR    N/A N/A N/A CALM      29.89F

$$

VAZ036>039-050-031000-
CENTRAL FOOTHILLS

CITY           SKY/WX    TMP DP  RH WIND       PRES   REMARKS
CHARLOTTESVILL PTCLDY    65  60  84 SW5       29.89F
CULPEPER*      PTCLDY    61  61  99 CALM      29.89S
ORANGE*        CLEAR     63  63 100 CALM      29.91S
GORDONSVILLE*  FAIR      61  61 100 SW3       29.89F
WARRENTON*     FAIR      63  62  99 CALM      29.88S

$$

VAZ055>057-031000-
NORTH AND CENTRAL PIEDMONT

CITY           SKY/WX    TMP DP  RH WIND       PRES   REMARKS
FREDERICKSBRG* PTCLDY    68  66  93 E5        29.87F
STAFFORD*      PTCLDY    60  59  96 SE3       29.92S

$$

NCZ024-NYZ072-PAZ021-071-VAZ022-071-031000-
OTHER REGIONAL OBSERVATIONS

CITY           SKY/WX    TMP DP  RH WIND       PRES   REMARKS
NEW YORK CITY  CLEAR     76  59  55 VRB5      29.87S
PHILADELPHIA   CLEAR     73  64  73 S7        29.86F
PITTSBURGH     PTCLDY    69  59  70 SW5       29.88R
ROANOKE        CLEAR     63  58  83 CALM      29.96F
RICHMOND       CLEAR     69  64  84 CALM      29.89F
RALEIGH        PTCLDY    70  67  90 CALM      29.92R

$$

ANZ530>537-031000-
MARINE OBSERVATIONS

STATION/POSITION TIME  TEMP    WIND        PRES
                       AIR SEA DIR/SP/G
                 (UTC) (F)     (DEG/KT/KT) (MB)
THOMAS PT LIGHT  NOT AVBL
BALT KEY BRIDGE  0800   72     170/  7/  8 1011.2R
COVE POINT       0800   75     240/ 10/ 12 1012.4S
LEWISETTA        0800   74 83  230/  9/ 10 1011.5S
SOLOMONS ISLAND  0800      83                N/A
PINEY POINT      0800          260/  4/  6   N/A

$$




USA.gov is the U.S. government's official web portal to all federal, state and local government web resources and services.